TimeMDT,TemperatureF,Dew PointF,Humidity,Sea Level PressureIn,VisibilityMPH,Wind Direction,Wind SpeedMPH,Gust SpeedMPH,PrecipitationIn,Events,Conditions,WindDirDegrees,DateUTC
12:53 AM,64.9,14.0,14,29.70,10.0,South,12.7,-,N/A,,Clear,190,2013-06-20 06:53:00
1:53 AM,64.9,17.1,16,29.71,10.0,SSW,10.4,-,N/A,,Clear,200,2013-06-20 07:53:00
2:53 AM,59.0,18.0,20,29.72,10.0,Calm,Calm,-,N/A,,Clear,0,2013-06-20 08:53:00
3:53 AM,51.1,21.9,32,29.75,10.0,NE,8.1,-,N/A,,Clear,50,2013-06-20 09:53:00
4:53 AM,50.0,23.0,35,29.77,10.0,ENE,9.2,-,N/A,,Clear,70,2013-06-20 10:53:00
5:53 AM,48.9,21.0,33,29.81,10.0,East,5.8,-,N/A,,Clear,90,2013-06-20 11:53:00
6:53 AM,52.0,24.1,34,29.82,10.0,Calm,Calm,-,N/A,,Clear,0,2013-06-20 12:53:00
7:53 AM,60.1,26.1,27,29.83,10.0,East,4.6,-,N/A,,Clear,80,2013-06-20 13:53:00
8:53 AM,70.0,21.9,16,29.82,10.0,Calm,Calm,-,N/A,,Clear,0,2013-06-20 14:53:00
9:53 AM,75.9,19.9,12,29.82,10.0,SW,11.5,-,N/A,,Clear,220,2013-06-20 15:53:00
10:53 AM,80.1,21.0,11,29.82,10.0,SSW,13.8,18.4,N/A,,Clear,200,2013-06-20 16:53:00
11:53 AM,82.9,18.0,9,29.82,10.0,SSW,15.0,24.2,N/A,,Clear,210,2013-06-20 17:53:00
12:53 PM,86.0,18.0,8,29.78,10.0,South,17.3,26.5,N/A,,Clear,180,2013-06-20 18:53:00
1:53 PM,87.1,9.0,5,29.75,10.0,SSW,9.2,29.9,N/A,,Clear,210,2013-06-20 19:53:00
2:53 PM,88.0,10.9,6,29.75,10.0,South,16.1,31.1,N/A,,Clear,190,2013-06-20 20:53:00
3:53 PM,89.1,10.9,5,29.76,10.0,SSW,13.8,29.9,N/A,,Clear,200,2013-06-20 21:53:00
4:53 PM,90.0,15.1,6,29.74,10.0,South,18.4,26.5,N/A,,Clear,190,2013-06-20 22:53:00
5:53 PM,89.1,12.9,6,29.73,10.0,South,15.0,19.6,N/A,,Clear,180,2013-06-20 23:53:00
6:53 PM,86.0,16.0,7,29.73,10.0,SW,10.4,-,N/A,,Clear,230,2013-06-21 00:53:00
7:53 PM,82.9,15.1,8,29.71,10.0,SW,10.4,-,N/A,,Clear,230,2013-06-21 01:53:00
8:53 PM,70.0,19.0,14,29.73,10.0,South,6.9,-,N/A,,Clear,170,2013-06-21 02:53:00
9:53 PM,63.0,17.1,17,29.75,10.0,Variable,3.5,-,N/A,,Clear,0,2013-06-21 03:53:00
10:53 PM,60.1,24.1,25,29.77,10.0,ENE,5.8,-,N/A,,Clear,60,2013-06-21 04:53:00
11:53 PM,57.9,24.1,27,29.77,10.0,ENE,9.2,-,N/A,,Clear,60,2013-06-21 05:53:00